Flag for U.S.A. Weather past 2 weeks in San Bernardino, California, U.S.A.

Now
69 °F

Clear.


Feels Like: 69 °F
Forecast: 52 / 79 °F
Wind: 6 mph from Northwest

Location: Riverside Municipal Airport


UV Index: 5 (Moderate)

Visibility: 10 mi


Pressure: 29.82 "Hg

Humidity: 41%

Dew point: 44 °F

Location of San BernardinoLocation

Historic Weather in San Bernardino

°F

San Bernardino temperature yesterday

Maximum temperature yesterday: 89 °F (at 1:53 PM)
Minimum temperature yesterday: 50 °F (at 5:53 AM)
Average temperature yesterday: 70 °F

Past Weeks' High & Low Weather Summary

 TemperatureHumidityPressure
High93 °F (Apr 7, 2:53 PM)93% (Apr 2, 5:53 AM)30.12 "Hg (Apr 2, 5:53 AM)
Low43 °F (Apr 3, 4:53 AM)2% (Apr 9, 1:53 PM)29.77 "Hg (Apr 11, 4:53 PM)
Average64 °F47%29.95 "Hg
* Reported Mar 31 7:53 PM — Apr 15 7:53 PM, San Bernardino, Weather by CustomWeather, © 2014

Note: Actual official high and low records may vary slightly from our data, if they occured in-between our weather recording intervals... More about our weather records

Advertising

Historic Weather Conditions — Data for Previous 24 hours

 ConditionsComfort  
Time TempWeatherWind HumidityBarometerVisibility
7:53 PM
Apr 15
72 °FSunny.9 mph38%29.80 "Hg10 mi
6:53 PM76 °FSunny.13 mph35%29.78 "Hg10 mi
5:53 PM79 °FSunny.10 mph30%29.78 "Hg10 mi
4:53 PM81 °FSunny.12 mph21%29.78 "Hg10 mi
3:53 PM82 °FSunny.16 mph20%29.79 "Hg10 mi
2:53 PM84 °FSunny.15 mph21%29.81 "Hg10 mi
1:53 PM84 °FSunny.10 mph19%29.83 "Hg10 mi
12:53 PM83 °FSunny.7 mph22%29.85 "Hg10 mi
11:53 AM81 °FSunny.8 mph20%29.88 "Hg10 mi
10:53 AM78 °FSunny.No wind20%29.90 "Hg10 mi
9:53 AM72 °FSunny.No wind25%29.91 "Hg10 mi
8:53 AM67 °FSunny.No wind36%29.91 "Hg10 mi
7:53 AM60 °FPassing clouds.No wind47%29.92 "Hg10 mi
6:53 AM56 °FPassing clouds.No wind55%29.92 "Hg10 mi
5:53 AM56 °FClear.3 mph51%29.92 "Hg10 mi
4:53 AM58 °FClear.No wind50%29.92 "Hg10 mi
3:53 AM61 °FClear.6 mph42%29.93 "Hg10 mi
2:53 AM60 °FClear.No wind46%29.94 "Hg10 mi
1:53 AM61 °FClear.No wind46%29.96 "Hg10 mi
12:53 AM63 °FClear.3 mph43%29.97 "Hg10 mi
11:53 PM
Apr 14
66 °FClear.No wind37%29.98 "Hg10 mi
10:53 PM69 °FClear.No wind25%29.98 "Hg10 mi
9:53 PM72 °FClear.3 mph22%29.98 "Hg10 mi
Weather by CustomWeather, © 2014

See weather overview